Location: Dos Palmas
(32.4468°N, 116.8732°W)
Time: 05:11:19
(UTC+00:00)

Cosmos 1862 - Pass Details

Date: 20 June 2021
Orbit: 536 x 556 km, 82.5° (Epoch: 29 July)

Event Time Altitude Azimuth Distance (km) Brightness Sun altitude
Exits shadow 11:05:24 36° 230° (SW) 878 3.8 -17.1°
Maximum altitude 11:06:35 49° 278° (W) 718 3.6 -16.9°
Drops below altitude 10° 11:10:31 10° 354° (N) 1,842 6.5 -16.3°
Sets 11:12:46 0° 0° (N) 2,742 7.5 -16.0°
